Weather History for KIYA - February, 2013

Change the Weather History Date:

Tuesday, February 19, 2013

  Actual Average (KARA) Record (KARA)
Temperature  
Mean Temperature 58 °F 56 °F  
Max Temperature 67 °F 67 °F 80 °F (1951)
Min Temperature 48 °F 46 °F 30 °F (1960)
Degree Days  
Heating Degree Days 8 9  
Month to date heating degree days 205  
Since 1 July heating degree days 1142  
Cooling Degree Days 0 1  
Month to date cooling degree days 15  
Year to date cooling degree days 27  
Growing Degree Days 8 (Base 50)    
Moisture  
Dew Point 46 °F    
Average Humidity 66    
Maximum Humidity 100    
Minimum Humidity 34    
Precipitation  
Precipitation 0.00 in 0.16 in 4.42 in (1991)
Month to date precipitation 2.81  
Year to date precipitation 8.03  
Sea Level Pressure  
Sea Level Pressure 30.16 in    
Wind  
Wind Speed 10 mph (North)    
Max Wind Speed 17 mph    
Max Gust Speed 22 mph    
Visibility 10 miles    
Events Rain    
T = Trace of Precipitation, MM = Missing Value Source: NWS Daily Summary

Daily Weather History Graph

Daily Weather History Graph

Search for Another Location

Airport or City:

Trip Planner

Search our weather history database for the weather conditions in past years. The results will help you decide how hot, cold, wet, or windy it might be!

Date:

Astronomy

Feb. 19, 2013 Rise Set
Actual Time 6:44 AM CST 6:00 PM CST
Civil Twilight 6:19 AM CST 6:24 PM CST
Nautical Twilight 5:51 AM CST 6:52 PM CST
Astronomical Twilight 5:24 AM CST 7:20 PM CST
Moon 12:45 PM CST (2/19) 2:03 AM CST (2/19)
Length of Visible Light 12h 04m
Length of Day
11h 16m
Waxing Gibbous, 67% of the Moon is Illuminated
Feb 19
Waxing Gibbous
Feb 25
Full
Mar 4
Last Quarter
Mar 11
New
Mar 19
First Quarter

Hourly Weather History & Observations

Time (CST) Temp. Dew Point Humidity Pressure Visibility Wind Dir Wind Speed Gust Speed Precip Events Conditions
12:15 AM 63.7 °F 61.7 °F 93% 29.99 in 10.0 mi WSW 10.4 mph - N/A Rain Light Rain
12:35 AM 63.5 °F 61.7 °F 94% 29.99 in 10.0 mi SSW 15.0 mph 19.6 mph N/A   Overcast
12:55 AM 62.8 °F 61.7 °F 96% 30.00 in 10.0 mi SW 6.9 mph - N/A   Mostly Cloudy
1:15 AM 62.6 °F 61.3 °F 96% 30.01 in 10.0 mi West 8.1 mph - N/A   Mostly Cloudy
1:35 AM 63.0 °F 62.8 °F 99% 30.03 in 10.0 mi WNW 9.2 mph - N/A   Drizzle
1:55 AM 62.6 °F 62.6 °F 100% 30.03 in 7.0 mi West 6.9 mph - N/A Rain Rain
2:15 AM 62.6 °F 62.6 °F 100% 30.03 in 10.0 mi WNW 8.1 mph - N/A   Overcast
2:35 AM 61.9 °F 61.9 °F 100% 30.02 in 10.0 mi WNW 8.1 mph - N/A   Overcast
3:15 AM 61.2 °F 60.3 °F 97% 30.04 in 10.0 mi NW 10.4 mph - N/A   Mostly Cloudy
3:35 AM 60.1 °F 59.4 °F 97% 30.05 in 10.0 mi NNW 12.7 mph - N/A   Mostly Cloudy
3:55 AM 59.4 °F 55.0 °F 86% 30.06 in 10.0 mi NNW 13.8 mph 20.7 mph N/A   Overcast
4:15 AM 58.3 °F 53.1 °F 83% 30.07 in 10.0 mi NNW 12.7 mph 19.6 mph N/A   Overcast
4:35 AM 57.6 °F 52.5 °F 83% 30.08 in 10.0 mi NNW 11.5 mph 21.9 mph N/A   Overcast
4:55 AM 56.3 °F 52.2 °F 86% 30.09 in 10.0 mi NNW 13.8 mph - N/A   Mostly Cloudy
5:15 AM 55.4 °F 52.0 °F 88% 30.10 in 10.0 mi NNW 9.2 mph 17.3 mph N/A   Clear
5:55 AM 54.5 °F 50.7 °F 87% 30.12 in 10.0 mi North 11.5 mph 18.4 mph N/A   Clear
6:15 AM 53.6 °F 49.8 °F 87% 30.14 in 10.0 mi NNW 10.4 mph - N/A   Clear
6:35 AM 52.9 °F 49.1 °F 87% 30.15 in 10.0 mi North 9.2 mph - N/A   Clear
6:55 AM 52.5 °F 48.4 °F 86% 30.16 in 10.0 mi North 12.7 mph - N/A   Clear
7:15 AM 53.1 °F 46.8 °F 79% 30.17 in 10.0 mi North 11.5 mph - N/A   Clear
7:35 AM 53.2 °F 46.0 °F 77% 30.18 in 10.0 mi North 10.4 mph 16.1 mph N/A   Clear
7:55 AM 54.0 °F 45.5 °F 73% 30.18 in 10.0 mi North 11.5 mph - N/A   Clear
8:15 AM 55.4 °F 46.0 °F 71% 30.19 in 10.0 mi North 9.2 mph - N/A   Clear
8:35 AM 56.1 °F 46.6 °F 70% 30.21 in 10.0 mi North 9.2 mph - N/A   Clear
8:55 AM 56.5 °F 46.2 °F 68% 30.21 in 10.0 mi North 16.1 mph 20.7 mph N/A   Clear
9:15 AM 57.6 °F 47.1 °F 68% 30.22 in 10.0 mi North 12.7 mph - N/A   Clear
10:15 AM 59.7 °F 46.9 °F 63% 30.24 in 10.0 mi North 12.7 mph 18.4 mph N/A   Clear
10:35 AM 60.3 °F 47.5 °F 63% 30.24 in 10.0 mi North 9.2 mph - N/A   Clear
10:55 AM 61.0 °F 45.9 °F 58% 30.24 in 10.0 mi North 15.0 mph 20.7 mph N/A   Clear
11:15 AM 61.5 °F 44.2 °F 53% 30.24 in 10.0 mi North 15.0 mph 19.6 mph N/A   Clear
11:35 AM 62.6 °F 43.3 °F 49% 30.24 in 10.0 mi North 15.0 mph 19.6 mph N/A   Clear
11:55 AM 62.4 °F 43.2 °F 49% 30.23 in 10.0 mi NNE 13.8 mph - N/A   Clear
12:15 PM 64.0 °F 41.7 °F 44% 30.22 in 10.0 mi North 15.0 mph 18.4 mph N/A   Clear
12:35 PM 64.4 °F 42.8 °F 45% 30.21 in 10.0 mi NNE 8.1 mph 17.3 mph N/A   Clear
12:55 PM 65.1 °F 42.8 °F 44% 30.21 in 10.0 mi NNE 12.7 mph 17.3 mph N/A   Clear
1:15 PM 66.0 °F 41.9 °F 41% 30.20 in 10.0 mi North 12.7 mph 19.6 mph N/A   Clear
1:35 PM 66.2 °F 41.7 °F 41% 30.20 in 10.0 mi North 13.8 mph 18.4 mph N/A   Clear
1:55 PM 67.1 °F 38.5 °F 35% 30.20 in 10.0 mi North 13.8 mph 19.6 mph N/A   Clear
2:15 PM 67.5 °F 38.8 °F 35% 30.19 in 10.0 mi North 17.3 mph 20.7 mph N/A   Clear
2:35 PM 67.3 °F 39.4 °F 36% 30.19 in 10.0 mi NNE 12.7 mph 19.6 mph N/A   Clear
2:55 PM 67.1 °F 38.1 °F 34% 30.19 in 10.0 mi North 13.8 mph 18.4 mph N/A   Clear
3:15 PM 67.1 °F 38.7 °F 35% 30.18 in 10.0 mi NNE 13.8 mph 21.9 mph N/A   Clear
3:35 PM 66.6 °F 38.3 °F 35% 30.18 in 10.0 mi North - - N/A   Clear
3:55 PM 66.4 °F 37.9 °F 35% 30.18 in 10.0 mi NNE 12.7 mph 19.6 mph N/A   Clear
4:15 PM 66.2 °F 38.5 °F 36% 30.18 in 10.0 mi NNE 12.7 mph - N/A   Clear
4:35 PM 65.5 °F 37.4 °F 35% 30.18 in 10.0 mi North 8.1 mph 17.3 mph N/A   Clear
4:55 PM 65.3 °F 36.7 °F 35% 30.18 in 10.0 mi NNE 9.2 mph - N/A   Clear
5:15 PM 63.7 °F 39.6 °F 41% 30.18 in 10.0 mi North 5.8 mph - N/A   Clear
6:35 PM 54.5 °F 42.3 °F 63% 30.18 in 10.0 mi North 6.9 mph - N/A   Clear
7:15 PM 54.0 °F 38.8 °F 57% 30.20 in 10.0 mi North 6.9 mph - N/A   Clear
7:35 PM 54.7 °F 38.1 °F 54% 30.21 in 10.0 mi North 8.1 mph - N/A   Clear
7:55 PM 54.3 °F 38.3 °F 55% 30.21 in 10.0 mi North 8.1 mph - N/A   Clear
8:15 PM 53.6 °F 38.8 °F 57% 30.21 in 10.0 mi North 5.8 mph - N/A   Clear
8:35 PM 52.7 °F 39.4 °F 61% 30.21 in 10.0 mi North 5.8 mph - N/A   Clear
8:55 PM 52.5 °F 39.9 °F 62% 30.21 in 10.0 mi NNE 5.8 mph - N/A   Clear
9:15 PM 52.2 °F 39.9 °F 63% 30.22 in 10.0 mi North 5.8 mph - N/A   Clear
9:35 PM 51.4 °F 40.5 °F 66% 30.24 in 10.0 mi NNE 5.8 mph - N/A   Clear
9:55 PM 50.4 °F 41.2 °F 71% 30.22 in 10.0 mi NNE 5.8 mph - N/A   Clear
10:15 PM 49.8 °F 41.2 °F 72% 30.22 in 10.0 mi NNE 5.8 mph - N/A   Clear
10:35 PM 49.5 °F 40.8 °F 72% 30.22 in 10.0 mi NNE 5.8 mph - N/A   Clear
10:55 PM 49.3 °F 40.1 °F 71% 30.22 in 10.0 mi NNE 5.8 mph - N/A   Clear
11:15 PM 49.1 °F 39.7 °F 70% 30.21 in 10.0 mi NE 3.5 mph - N/A   Clear
11:35 PM 48.6 °F 39.4 °F 71% 30.20 in 10.0 mi NE 4.6 mph - N/A   Clear
11:55 PM 49.5 °F 38.3 °F 65% 30.21 in 10.0 mi NE 4.6 mph - N/A   Clear